[[[{"header":{"parameterUnit":"kt","parameterCategory":2,"dx":1,"dy":1,"la1":30.253999710083008,"la2":30.299108505249023,"lo1":-89.0895004272461,"lo2":-89.04439544677734,"nx":28,"ny":28,"refTime":"2022-11-01T21:00:00:Z","depth":"0","parameterNumber":2,"parameterNumberName":"U-component_of_CURRENTS"},"data":[-0.2541,-0.2457,-0.2545,-0.2485,-0.2603,-0.2591,-0.2623,-0.2523,-0.2371,-0.1857,-0.1393,-0.1267,-0.0995,-0.057,-0.0272,-0.039,-0.051,-0.058,-0.0828,-0.0887,-0.0986,-0.1081,-0.088,-0.0135,-0.0134,-0.0341,-0.034,-0.0339,-0.2785,-0.2841,-0.2913,-0.3029,-0.3075,-0.3299,-0.3435,-0.333,-0.3196,-0.3044,-0.2885,-0.2324,-0.2033,-0.1878,-0.1591,-0.1495,-0.17,-0.1514,-0.1532,-0.1612,-0.2052,-0.1868,-0.132,-0.1321,-0.1321,-0.1321,-0.1322,-0.1322,-0.3202,-0.3201,-0.3297,-0.3397,-0.3536,-0.3668,-0.3657,-0.375,-0.3736,-0.3567,-0.373,-0.3374,-0.3175,-0.3036,-0.3041,-0.2717,-0.3108,-0.2615,-0.259,-0.2792,-0.2638,-0.3195,-0.2966,-0.297,-0.2974,-0.2978,-0.2981,0,-0.3478,-0.3567,-0.3622,-0.3767,-0.3844,-0.3962,-0.4049,-0.4084,-0.4197,-0.4181,-0.4104,-0.404,-0.3967,-0.3708,-0.3694,-0.3675,-0.3661,-0.3747,-0.35,-0.2773,-0.2858,-0.2826,-0.3511,-0.3364,-0.3371,-0.3376,-0.338,-0.3383,-0.3698,-0.3759,-0.3961,-0.3998,-0.4053,-0.4148,-0.4193,-0.4333,-0.4354,-0.44,-0.4386,-0.4388,-0.4311,-0.4296,-0.4217,-0.4187,-0.4125,-0.3914,-0.3821,-0.3534,-0.3442,-0.3585,-0.3575,-0.346,-0.3451,-0.3443,-0.3436,0,-0.3777,-0.3912,-0.401,-0.4171,-0.4224,-0.4258,-0.436,-0.4385,-0.4458,-0.4473,-0.4491,-0.4563,-0.4532,-0.4581,-0.4562,-0.4547,-0.4336,-0.444,-0.4099,-0.4024,-0.3611,-0.3547,-0.3516,-0.3485,-0.4336,-0.4332,-0.4329,0,-0.3873,-0.3944,-0.4124,-0.4176,-0.424,-0.4348,-0.4388,-0.4446,-0.4513,-0.4525,-0.4619,-0.461,-0.4671,-0.4667,-0.4642,-0.4548,-0.463,-0.4439,-0.4408,-0.4101,-0.4062,-0.3765,-0.3678,-0.4576,-0.4576,-0.4575,-0.4574,0,-0.3887,-0.4056,-0.4131,-0.4184,-0.4337,-0.4358,-0.4415,-0.4494,-0.4517,-0.461,-0.4625,-0.4684,-0.4668,-0.4671,-0.4599,-0.459,-0.4585,-0.4567,-0.4414,-0.4405,-0.4068,-0.4024,-0.3758,-0.4573,-0.4573,-0.4573,-0.4572,0,-0.394,-0.4056,-0.4143,-0.4305,-0.4342,-0.4368,-0.4468,-0.4495,-0.4578,-0.4601,-0.464,-0.4636,-0.4647,-0.459,-0.4585,-0.4556,-0.4512,-0.4477,-0.4478,-0.4286,-0.422,-0.3979,-0.3953,-0.366,-0.4488,-0.4487,-0.4486,0,-0.3956,-0.4091,-0.4166,-0.4261,-0.4359,-0.4439,-0.4459,-0.4526,-0.4564,-0.4595,-0.4609,-0.4578,-0.4537,-0.4496,-0.45,-0.4419,-0.444,-0.44,-0.4367,-0.4367,-0.4232,-0.4278,-0.3916,-0.3957,-0.4473,-0.4474,-0.4475,0,-0.3989,-0.4182,-0.4203,-0.4281,-0.4404,-0.4457,-0.4487,-0.4559,-0.4572,-0.4585,-0.4588,-0.4513,-0.4504,-0.445,-0.438,-0.4374,-0.442,-0.4304,-0.43,-0.4361,-0.4442,-0.4282,-0.4275,-0.4365,-0.4366,-0.4367,-0.4465,0,-0.4143,-0.4207,-0.4238,-0.4358,-0.4404,-0.4454,-0.4531,-0.455,-0.4539,-0.454,-0.4522,-0.4447,-0.4375,-0.4348,-0.4271,-0.4271,-0.4256,-0.4202,-0.4168,-0.4218,-0.4254,-0.4263,-0.4129,-0.4127,-0.4125,-0.4124,0,0,-0.417,-0.4229,-0.4326,-0.4393,-0.4428,-0.4492,-0.4522,-0.4527,-0.4495,-0.4492,-0.446,-0.4334,-0.4257,-0.4212,-0.4207,-0.4168,-0.4163,-0.4145,-0.4185,-0.4193,-0.4199,-0.4237,-0.4247,-0.4121,-0.412,-0.4119,-0.4119,0,-0.4243,-0.429,-0.4324,-0.4387,-0.4471,-0.4488,-0.4506,-0.4516,-0.4493,-0.4463,-0.4368,-0.4327,-0.4218,-0.4168,-0.4121,-0.4145,-0.4096,-0.411,-0.4174,-0.417,-0.418,-0.4188,-0.4228,-0.4238,-0.4114,-0.4115,-0.4115,0,-0.4306,-0.4368,-0.4369,-0.4446,-0.446,-0.4497,-0.4464,-0.4481,-0.4473,-0.4365,-0.4295,-0.4233,-0.4138,-0.4099,-0.4073,-0.4051,-0.4049,-0.4018,-0.4026,-0.403,-0.4023,-0.4034,-0.4044,-0.3921,-0.3921,-0.3921,0,0,-0.437,-0.4406,-0.4471,-0.4458,-0.45,-0.4479,-0.447,-0.4453,-0.4409,-0.4371,-0.4292,-0.4204,-0.4139,-0.4104,-0.4042,-0.401,-0.3998,-0.4,-0.4009,-0.4017,-0.4025,-0.4021,-0.4031,-0.3921,-0.3921,-0.3921,0,0,-0.4369,-0.4451,-0.4458,-0.4455,-0.4494,-0.4471,-0.4456,-0.4421,-0.4346,-0.4318,-0.4217,-0.4194,-0.4147,-0.4091,-0.4095,-0.4029,-0.3985,-0.3983,-0.4078,-0.4088,-0.4096,-0.4123,-0.402,0,0,0,0,0,-0.4474,-0.4464,-0.4472,-0.4476,-0.4453,-0.4488,-0.4477,-0.4418,-0.4355,-0.4358,-0.4265,-0.421,-0.4074,-0.4076,-0.4057,-0.4062,-0.3914,-0.3915,-0.3916,-0.403,-0.4041,-0.4051,0,0,0,0,0,0,-0.4475,-0.4482,-0.4472,-0.4458,-0.4453,-0.4484,-0.4401,-0.4383,-0.4354,-0.4342,-0.4227,-0.4208,-0.4144,-0.408,-0.4064,-0.4071,-0.4025,-0.3915,-0.3916,-0.3916,-0.4034,-0.4043,-0.4051,0,0,0,0,0,-0.4477,-0.4482,-0.4468,-0.4454,-0.4449,-0.4391,-0.4399,-0.4383,-0.4334,-0.4261,-0.4238,-0.4296,-0.4146,-0.4126,-0.407,-0.4081,-0.4036,-0.403,-0.3915,-0.3916,-0.3917,-0.4038,0,0,0,0,0,0,-0.4478,-0.4428,-0.4464,-0.446,-0.4448,-0.4386,-0.4376,-0.4384,-0.4249,-0.4232,-0.4328,-0.432,-0.4148,-0.4132,-0.4118,-0.4089,-0.4045,-0.4039,-0.4035,-0.3916,-0.3916,-0.3917,0,0,0,0,0,0,-0.4426,-0.4424,-0.4461,-0.4456,-0.4449,-0.4382,-0.4374,-0.432,-0.4246,-0.4317,-0.4311,-0.4326,-0.4174,-0.4137,-0.4125,-0.4042,-0.4051,-0.4046,-0.4042,-0.4039,-0.3916,-0.3917,0,0,0,0,0,0,-0.4423,-0.4421,-0.4456,-0.4451,-0.4444,-0.4372,-0.4328,-0.4297,-0.4276,-0.4321,-0.4272,-0.4271,-0.418,-0.4166,-0.413,-0.4053,-0.4045,-0.4051,-0.4047,-0.4045,-0.4043,0,0,0,0,0,0,0,-0.4421,-0.446,-0.4514,-0.4446,-0.444,-0.4421,-0.4417,-0.4414,-0.4276,-0.4274,-0.4273,-0.4271,-0.4083,-0.4077,-0.4071,-0.4062,0,0,-0.4052,-0.4049,0,0,0,0,0,0,0,0,-0.4459,-0.446,-0.4514,-0.4515,-0.4515,-0.442,-0.4418,-0.4415,-0.4276,-0.4274,-0.4273,-0.4272,-0.4082,-0.4077,-0.4072,0,0,0,0,0,0,0,0,0,0,0,0,0,0,0,-0.4514,-0.4515,0,-0.442,-0.4418,-0.4415,-0.4275,-0.4274,-0.4273,-0.4273,-0.408,-0.4076,-0.4072,0,0,0,0,0,0,0,0,0,0,0,0,0,0,0,0,0,0,0,0,0,0,0,0,0,0,0,0,0,0,0,0,0,0,0,0,0,0,0,0,0,0,0,0,0,0,0,0,0,0,0,0,0,0,0,0,0,0,0,0,0,0,0,0,0,0,0,0,0]}],[{"header":{"parameterUnit":"kt","parameterCategory":2,"dx":1,"dy":1,"la1":30.253999710083008,"la2":30.299108505249023,"lo1":-89.0895004272461,"lo2":-89.04439544677734,"nx":28,"ny":28,"refTime":"2022-11-01T21:00:00:Z","depth":"0","parameterNumber":3,"parameterNumberName":"V-component_of_CURRENTS"},"data":[-0.1466,-0.1506,-0.154,-0.1581,-0.1616,-0.1564,-0.1515,-0.1236,-0.095,-0.0313,0.0195,0.0429,0.0409,-0.0005,-0.0047,-0.0032,0.0202,0.0102,0.021,0.0066,0.0039,0.0013,0.0085,0.0274,0.0275,0.0587,0.059,0.0592,-0.1477,-0.152,-0.1579,-0.1627,-0.1672,-0.1707,-0.1706,-0.1557,-0.1375,-0.1107,-0.0936,-0.0564,-0.0592,-0.0531,-0.0475,-0.0391,-0.0331,-0.03,-0.0224,-0.0135,-0.0456,-0.04,-0.031,-0.031,-0.0311,-0.0311,-0.0311,-0.0311,-0.1495,-0.1528,-0.1554,-0.1608,-0.1664,-0.1723,-0.1683,-0.1651,-0.1591,-0.1333,-0.1464,-0.1149,-0.1162,-0.098,-0.0986,-0.0759,-0.0811,-0.0647,-0.0619,-0.0642,-0.0487,-0.0904,-0.0884,-0.0885,-0.0886,-0.0886,-0.0887,0,-0.1482,-0.1496,-0.1504,-0.157,-0.1602,-0.1636,-0.1641,-0.1661,-0.1579,-0.1525,-0.1478,-0.1441,-0.1364,-0.1239,-0.1129,-0.1082,-0.0859,-0.097,-0.0797,-0.0574,-0.06,-0.0484,-0.0873,-0.0849,-0.0849,-0.085,-0.085,-0.0851,-0.1439,-0.146,-0.1462,-0.1486,-0.1466,-0.1476,-0.1491,-0.1422,-0.1429,-0.1359,-0.139,-0.1318,-0.1301,-0.1236,-0.1131,-0.1084,-0.0943,-0.0986,-0.0913,-0.0778,-0.0734,-0.074,-0.0639,-0.0858,-0.0857,-0.0856,-0.0856,0,-0.1408,-0.1374,-0.138,-0.1337,-0.1334,-0.1348,-0.132,-0.133,-0.1262,-0.1288,-0.1282,-0.1205,-0.1176,-0.1132,-0.1067,-0.1047,-0.0941,-0.1,-0.0975,-0.0965,-0.0795,-0.0758,-0.0706,-0.0585,-0.1014,-0.1014,-0.1015,0,-0.1309,-0.1308,-0.1255,-0.1269,-0.128,-0.1209,-0.1225,-0.1185,-0.1159,-0.119,-0.1116,-0.1137,-0.1065,-0.1064,-0.1034,-0.1023,-0.1012,-0.0954,-0.0951,-0.089,-0.0888,-0.0709,-0.0662,-0.0906,-0.0905,-0.0905,-0.0904,0,-0.1249,-0.1199,-0.1205,-0.1193,-0.115,-0.1137,-0.1123,-0.1107,-0.1124,-0.1094,-0.1103,-0.1081,-0.1076,-0.104,-0.1016,-0.1,-0.0991,-0.0957,-0.0943,-0.0947,-0.0857,-0.0853,-0.0701,-0.0904,-0.0903,-0.0903,-0.0903,0,-0.1152,-0.1149,-0.1139,-0.1106,-0.1111,-0.1097,-0.1109,-0.1094,-0.1097,-0.1102,-0.1092,-0.1087,-0.1063,-0.1038,-0.1005,-0.1006,-0.0968,-0.0943,-0.0944,-0.0914,-0.091,-0.0922,-0.0926,-0.0757,-0.0985,-0.0985,-0.0985,0,-0.1127,-0.1123,-0.109,-0.1084,-0.1104,-0.1096,-0.1083,-0.1098,-0.1117,-0.112,-0.1119,-0.1091,-0.1077,-0.1045,-0.1019,-0.0968,-0.0952,-0.0947,-0.0904,-0.0904,-0.093,-0.0942,-0.0874,-0.0929,-0.0985,-0.0985,-0.0985,0,-0.1133,-0.11,-0.1108,-0.1115,-0.1122,-0.1142,-0.1121,-0.1152,-0.1148,-0.1157,-0.1146,-0.108,-0.1076,-0.103,-0.0983,-0.0952,-0.0959,-0.0923,-0.092,-0.0979,-0.0935,-0.0945,-0.0946,-0.0916,-0.0915,-0.0914,-0.0986,0,-0.1104,-0.1104,-0.1103,-0.114,-0.1141,-0.115,-0.1183,-0.1179,-0.1188,-0.1192,-0.1166,-0.1111,-0.104,-0.1021,-0.0978,-0.093,-0.0942,-0.0901,-0.0885,-0.0885,-0.092,-0.092,-0.09,-0.0899,-0.0898,-0.0897,0,0,-0.1134,-0.1147,-0.1193,-0.1192,-0.1197,-0.1238,-0.1232,-0.1227,-0.1197,-0.1193,-0.1195,-0.108,-0.1026,-0.0959,-0.095,-0.0922,-0.092,-0.0911,-0.0882,-0.0881,-0.0879,-0.0912,-0.0913,-0.0895,-0.0894,-0.0894,-0.0893,0,-0.1157,-0.1186,-0.1197,-0.1209,-0.124,-0.1243,-0.125,-0.1238,-0.1227,-0.1199,-0.114,-0.1098,-0.1021,-0.0969,-0.0931,-0.0914,-0.0891,-0.0894,-0.0909,-0.0874,-0.0875,-0.0874,-0.0907,-0.0909,-0.0891,-0.0891,-0.0891,0,-0.1199,-0.1229,-0.1238,-0.1271,-0.1269,-0.1266,-0.1259,-0.1247,-0.1234,-0.1173,-0.1115,-0.1073,-0.0999,-0.0955,-0.093,-0.0918,-0.087,-0.0867,-0.087,-0.0859,-0.082,-0.0821,-0.0821,-0.0821,-0.0821,-0.0822,0,0,-0.1228,-0.1248,-0.1286,-0.1281,-0.1296,-0.1274,-0.1258,-0.1244,-0.1206,-0.1175,-0.1126,-0.106,-0.1009,-0.0979,-0.0929,-0.0884,-0.0866,-0.0863,-0.0866,-0.0869,-0.086,-0.0823,-0.0822,-0.0823,-0.0823,-0.0823,0,0,-0.1225,-0.1276,-0.1297,-0.1291,-0.1309,-0.1275,-0.1248,-0.1229,-0.1166,-0.1148,-0.109,-0.1075,-0.1032,-0.0986,-0.1006,-0.0921,-0.0901,-0.0896,-0.0967,-0.097,-0.0973,-0.0978,-0.0969,0,0,0,0,0,-0.1301,-0.1286,-0.1306,-0.131,-0.1285,-0.1285,-0.1273,-0.123,-0.1196,-0.1185,-0.1126,-0.1097,-0.0982,-0.0999,-0.0984,-0.0975,-0.0835,-0.0833,-0.0831,-0.0911,-0.0915,-0.0918,0,0,0,0,0,0,-0.1302,-0.1308,-0.1306,-0.1283,-0.1278,-0.1283,-0.1241,-0.1226,-0.1197,-0.119,-0.1106,-0.1094,-0.1055,-0.1004,-0.099,-0.0983,-0.0973,-0.0834,-0.0832,-0.083,-0.0912,-0.0915,-0.0918,0,0,0,0,0,-0.1304,-0.1308,-0.1294,-0.1279,-0.1274,-0.1228,-0.124,-0.1228,-0.1183,-0.1137,-0.1122,-0.1158,-0.1056,-0.1041,-0.0996,-0.0991,-0.0982,-0.0977,-0.0833,-0.0831,-0.083,-0.0914,0,0,0,0,0,0,-0.1304,-0.1256,-0.129,-0.1285,-0.1288,-0.1225,-0.1218,-0.123,-0.1127,-0.1116,-0.1189,-0.1185,-0.1056,-0.1045,-0.1034,-0.0996,-0.0989,-0.0984,-0.0981,-0.0832,-0.083,-0.0829,0,0,0,0,0,0,-0.1255,-0.1253,-0.1287,-0.1301,-0.1296,-0.1223,-0.1217,-0.1168,-0.1126,-0.1181,-0.1177,-0.1189,-0.1088,-0.1047,-0.1038,-0.0961,-0.0995,-0.099,-0.0987,-0.0985,-0.0831,-0.083,0,0,0,0,0,0,-0.1252,-0.1249,-0.13,-0.1297,-0.1292,-0.1218,-0.1175,-0.1151,-0.1144,-0.1184,-0.1145,-0.1145,-0.1092,-0.1081,-0.1042,-0.0968,-0.0962,-0.0995,-0.0992,-0.0989,-0.0988,0,0,0,0,0,0,0,-0.1249,-0.129,-0.1341,-0.1294,-0.1289,-0.1242,-0.1238,-0.1235,-0.1144,-0.1144,-0.1145,-0.1145,-0.1022,-0.1016,-0.1011,-0.0974,0,0,-0.0995,-0.0993,0,0,0,0,0,0,0,0,-0.1289,-0.129,-0.1341,-0.1341,-0.1341,-0.1241,-0.1239,-0.1236,-0.1144,-0.1144,-0.1144,-0.1145,-0.102,-0.1016,-0.1012,0,0,0,0,0,0,0,0,0,0,0,0,0,0,0,-0.1341,-0.1341,0,-0.1241,-0.1239,-0.1236,-0.1144,-0.1144,-0.1144,-0.1145,-0.1019,-0.1016,-0.1012,0,0,0,0,0,0,0,0,0,0,0,0,0,0,0,0,0,0,0,0,0,0,0,0,0,0,0,0,0,0,0,0,0,0,0,0,0,0,0,0,0,0,0,0,0,0,0,0,0,0,0,0,0,0,0,0,0,0,0,0,0,0,0,0,0,0,0,0,0]}]],[[{"header":{"parameterUnit":"kt","parameterCategory":2,"dx":1,"dy":1,"la1":30.253999710083008,"la2":30.299108505249023,"lo1":-89.0895004272461,"lo2":-89.04439544677734,"nx":28,"ny":28,"refTime":"2022-11-01T21:00:00:Z","depth":"2","parameterNumber":2,"parameterNumberName":"U-component_of_CURRENTS"},"data":[-0.1531,-0.1442,-0.1428,-0.1335,-0.1349,-0.1125,-0.1029,-0.0881,-0.0719,-0.0585,-0.0475,-0.0522,-0.0441,-0.0212,-0.0183,-0.0037,-0.0186,0.0005,-0.0697,-0.0392,-0.0428,-0.0586,-0.0433,0,0,0,0,0,-0.1609,-0.1568,-0.1593,-0.1464,-0.1413,-0.1361,-0.1268,-0.115,-0.115,-0.1055,-0.1101,-0.0894,-0.0746,-0.073,-0.0638,-0.068,-0.0578,-0.0601,-0.0333,-0.0371,-0.0406,-0.0285,-0.0024,-0.0024,-0.0024,-0.0024,0,0,-0.17,-0.1642,-0.1649,-0.1577,-0.1539,-0.1394,-0.1307,-0.1323,-0.1318,-0.1403,-0.1475,-0.1406,-0.1277,-0.1248,-0.1207,-0.1201,-0.1365,-0.1088,-0.1092,-0.1103,-0.1025,-0.1066,-0.0956,-0.0961,-0.0965,-0.0969,-0.0973,0,-0.1753,-0.1752,-0.1674,-0.167,-0.161,-0.1501,-0.1507,-0.1477,-0.1593,-0.1681,-0.1722,-0.168,-0.1754,-0.1512,-0.1599,-0.1506,-0.1364,-0.132,-0.1783,-0.0886,-0.0921,-0.0989,-0.1019,-0.0792,-0.0796,-0.0799,-0.0802,-0.0803,-0.1867,-0.184,-0.1763,-0.1741,-0.1727,-0.1695,-0.1734,-0.1761,-0.173,-0.1895,-0.1836,-0.1926,-0.1852,-0.185,-0.1783,-0.176,-0.1791,-0.1403,-0.129,-0.1763,-0.1834,-0.1841,-0.1849,-0.085,-0.0844,-0.0839,-0.0835,0,-0.1898,-0.1954,-0.1826,-0.1841,-0.1853,-0.1805,-0.1838,-0.1805,-0.1957,-0.1877,-0.1869,-0.1856,-0.1907,-0.1809,-0.1742,-0.1666,-0.1632,-0.1658,-0.1326,-0.1346,-0.1828,-0.1839,-0.1763,-0.1766,-0.1768,-0.177,-0.1772,0,-0.2062,-0.1944,-0.2024,-0.1974,-0.1917,-0.2006,-0.1947,-0.1988,-0.1978,-0.1877,-0.1845,-0.1787,-0.1662,-0.1596,-0.1573,-0.1598,-0.1536,-0.1612,-0.1677,-0.1333,-0.1321,-0.1608,-0.1622,-0.1479,-0.1478,-0.1477,-0.1477,0,-0.215,-0.2125,-0.209,-0.2101,-0.2105,-0.2118,-0.2097,-0.206,-0.1999,-0.1874,-0.1898,-0.1647,-0.1655,-0.1569,-0.1593,-0.161,-0.1551,-0.1584,-0.1678,-0.1693,-0.134,-0.1329,-0.1476,-0.1475,-0.1475,-0.1475,-0.1475,0,-0.2304,-0.227,-0.2253,-0.2213,-0.2228,-0.2185,-0.2157,-0.2099,-0.195,-0.1931,-0.1774,-0.1688,-0.154,-0.1609,-0.1527,-0.1582,-0.1635,-0.166,-0.1666,-0.1722,-0.1874,-0.1598,-0.1438,-0.1849,-0.1851,-0.1852,-0.1854,0,-0.2348,-0.2357,-0.2412,-0.2315,-0.2284,-0.2325,-0.2314,-0.2167,-0.2065,-0.1979,-0.1799,-0.1731,-0.1737,-0.1802,-0.1698,-0.176,-0.1705,-0.1729,-0.1814,-0.1816,-0.1903,-0.1815,-0.1419,-0.1475,-0.1873,-0.1871,-0.1869,0,-0.2403,-0.2497,-0.2499,-0.2447,-0.2463,-0.2392,-0.2375,-0.2182,-0.2117,-0.2065,-0.1932,-0.1849,-0.1872,-0.1815,-0.1844,-0.1778,-0.1753,-0.1896,-0.1895,-0.1953,-0.1752,-0.184,-0.1837,-0.1791,-0.1786,-0.1782,-0.1885,0,-0.2486,-0.2468,-0.253,-0.2487,-0.2462,-0.2444,-0.2316,-0.2354,-0.2317,-0.2153,-0.2095,-0.2132,-0.209,-0.2091,-0.2089,-0.1963,-0.207,-0.208,-0.2088,-0.2007,-0.2078,-0.2066,-0.2223,-0.2224,-0.2225,-0.2226,0,0,-0.2461,-0.2437,-0.2467,-0.2488,-0.244,-0.2361,-0.2309,-0.2246,-0.2225,-0.2172,-0.2313,-0.2247,-0.2279,-0.2118,-0.2148,-0.2168,-0.2217,-0.2173,-0.2065,-0.2047,-0.2031,-0.2091,-0.2079,-0.2227,-0.2227,-0.2228,-0.2228,0,-0.2455,-0.2489,-0.2488,-0.2468,-0.2391,-0.2307,-0.2306,-0.2271,-0.229,-0.2237,-0.2312,-0.2341,-0.235,-0.2325,-0.2274,-0.2196,-0.2254,-0.2245,-0.2128,-0.2076,-0.2057,-0.204,-0.2096,-0.2084,-0.223,-0.2229,-0.2229,0,-0.2414,-0.2372,-0.2354,-0.2273,-0.2262,-0.2206,-0.2204,-0.221,-0.2121,-0.2223,-0.2318,-0.2376,-0.2339,-0.2355,-0.2375,-0.2382,-0.228,-0.2319,-0.2314,-0.2243,-0.2187,-0.2167,-0.2148,-0.238,-0.2381,-0.2381,0,0,-0.2398,-0.241,-0.2255,-0.2243,-0.2248,-0.2155,-0.2127,-0.2136,-0.2167,-0.2237,-0.2327,-0.238,-0.2353,-0.2392,-0.2422,-0.2364,-0.2353,-0.2337,-0.233,-0.2324,-0.2252,-0.2194,-0.2174,-0.2383,-0.2383,-0.2383,0,0,-0.2409,-0.2299,-0.2234,-0.2234,-0.2142,-0.2062,-0.2128,-0.2074,-0.2186,-0.2273,-0.2322,-0.2358,-0.2427,-0.2427,-0.2451,-0.2423,-0.2453,-0.2447,-0.2428,-0.2419,-0.2412,-0.2332,-0.253,0,0,0,0,0,-0.2235,-0.2269,-0.2204,-0.2176,-0.2076,-0.2004,-0.1994,-0.2076,-0.213,-0.2207,-0.2307,-0.2354,-0.2494,-0.2517,-0.2508,-0.2476,-0.2408,-0.2403,-0.2399,-0.2363,-0.2354,-0.2346,0,0,0,0,0,0,-0.2223,-0.2198,-0.22,-0.2102,-0.2072,-0.2007,-0.2101,-0.2124,-0.2138,-0.2181,-0.232,-0.2352,-0.2427,-0.2521,-0.2514,-0.2482,-0.2533,-0.2406,-0.2402,-0.2399,-0.236,-0.2352,-0.2346,0,0,0,0,0,-0.2213,-0.2192,-0.205,-0.2103,-0.2078,-0.2108,-0.2118,-0.2138,-0.2231,-0.2242,-0.2285,-0.2308,-0.2416,-0.2428,-0.2517,-0.2485,-0.2538,-0.2535,-0.2403,-0.2401,-0.2398,-0.2356,0,0,0,0,0,0,-0.2204,-0.2245,-0.2044,-0.2031,-0.2219,-0.2128,-0.2138,-0.215,-0.2306,-0.2329,-0.2226,-0.2256,-0.2404,-0.2416,-0.2423,-0.2486,-0.2542,-0.254,-0.2538,-0.2401,-0.2399,-0.2397,0,0,0,0,0,0,-0.225,-0.2237,-0.204,-0.2184,-0.2191,-0.2144,-0.2153,-0.208,-0.2313,-0.2296,-0.2315,-0.2238,-0.2426,-0.2406,-0.2413,-0.2288,-0.2546,-0.2543,-0.2541,-0.254,-0.2399,-0.2398,0,0,0,0,0,0,-0.2243,-0.2232,-0.2191,-0.2196,-0.2204,-0.2104,-0.2088,-0.2035,-0.2284,-0.2296,-0.2319,-0.2335,-0.2412,-0.2422,-0.2404,-0.2274,-0.2285,-0.2546,-0.2544,-0.2542,-0.2542,0,0,0,0,0,0,0,-0.2237,-0.2337,-0.207,-0.2206,-0.2214,-0.1906,-0.1907,-0.1908,-0.2288,-0.2302,-0.2315,-0.2328,-0.2561,-0.2558,-0.2555,-0.2263,0,0,-0.2546,-0.2545,0,0,0,0,0,0,0,0,-0.2339,-0.2338,-0.2069,-0.2064,-0.2059,-0.1906,-0.1907,-0.1908,-0.229,-0.2301,-0.2312,-0.2323,-0.2561,-0.2558,-0.2556,0,0,0,0,0,0,0,0,0,0,0,0,0,0,0,-0.2069,-0.2064,0,-0.1906,-0.1907,-0.1908,-0.2292,-0.2301,-0.231,-0.2319,-0.256,-0.2558,-0.2556,0,0,0,0,0,0,0,0,0,0,0,0,0,0,0,0,0,0,0,0,0,0,0,0,0,0,0,0,0,0,0,0,0,0,0,0,0,0,0,0,0,0,0,0,0,0,0,0,0,0,0,0,0,0,0,0,0,0,0,0,0,0,0,0,0,0,0,0,0]}],[{"header":{"parameterUnit":"kt","parameterCategory":2,"dx":1,"dy":1,"la1":30.253999710083008,"la2":30.299108505249023,"lo1":-89.0895004272461,"lo2":-89.04439544677734,"nx":28,"ny":28,"refTime":"2022-11-01T21:00:00:Z","depth":"2","parameterNumber":3,"parameterNumberName":"V-component_of_CURRENTS"},"data":[-0.0834,-0.0841,-0.0836,-0.0855,-0.0866,-0.0811,-0.074,-0.0545,-0.0372,-0.0186,-0.0013,0.0242,0.0529,0.0668,0.0849,0.0939,0.0871,0.0838,0.0819,0.1025,0.1025,0.1176,0.1128,0,0,0,0,0,-0.0814,-0.0813,-0.0832,-0.0806,-0.0813,-0.0759,-0.065,-0.0568,-0.0419,-0.0229,-0.0073,0.0142,0.0452,0.0557,0.0696,0.0815,0.0808,0.083,0.1002,0.1011,0.1018,0.0974,0.0941,0.0939,0.0936,0.0935,0,0,-0.0764,-0.078,-0.0771,-0.0754,-0.0737,-0.0668,-0.0625,-0.0516,-0.0419,-0.0265,-0.0175,0.0011,0.0275,0.0454,0.0553,0.0609,0.0672,0.0951,0.0961,0.0968,0.0919,0.0853,0.0872,0.0871,0.087,0.0869,0.0868,0,-0.0712,-0.07,-0.0687,-0.0683,-0.0657,-0.0607,-0.0544,-0.0524,-0.0409,-0.0331,-0.0206,-0.0087,0.0036,0.0326,0.0474,0.0598,0.09,0.0915,0.0846,0.1168,0.1113,0.1111,0.1102,0.119,0.119,0.119,0.1191,0.1191,-0.0641,-0.0644,-0.0599,-0.0594,-0.0569,-0.0539,-0.0505,-0.0424,-0.0381,-0.0257,-0.0202,-0.0073,0.0082,0.0299,0.0472,0.0661,0.0762,0.0928,0.1006,0.0894,0.089,0.0885,0.0881,0.1194,0.1193,0.1193,0.1193,0,-0.06,-0.0561,-0.0545,-0.0489,-0.0469,-0.0464,-0.0395,-0.0363,-0.0302,-0.0206,-0.0154,0.0048,0.0189,0.041,0.0647,0.0796,0.0935,0.0954,0.1022,0.1026,0.0909,0.0899,0.0949,0.0944,0.094,0.0937,0.0934,0,-0.0536,-0.0512,-0.0467,-0.0453,-0.0439,-0.0374,-0.0344,-0.0277,-0.0178,-0.0092,0.0083,0.0168,0.045,0.06,0.0767,0.0887,0.0967,0.0991,0.0991,0.1097,0.1089,0.1106,0.1097,0.118,0.1179,0.1179,0.1178,0,-0.051,-0.0441,-0.0439,-0.0408,-0.0319,-0.0306,-0.0244,-0.0116,-0.0043,0.0102,0.0141,0.0359,0.0451,0.0626,0.0807,0.0831,0.098,0.1032,0.0988,0.0977,0.1106,0.11,0.1178,0.1178,0.1177,0.1177,0.1177,0,-0.0449,-0.0431,-0.0402,-0.0343,-0.0303,-0.0269,-0.0166,-0.0079,0.0103,0.0179,0.0315,0.0451,0.0602,0.0656,0.0856,0.0807,0.0896,0.0958,0.0962,0.0837,0.0809,0.0951,0.1018,0.0981,0.0979,0.0978,0.0976,0,-0.0444,-0.0417,-0.0375,-0.0312,-0.0246,-0.0115,-0.0059,0.009,0.0213,0.0302,0.0484,0.0557,0.065,0.0658,0.0753,0.0822,0.0889,0.0834,0.0936,0.0938,0.0783,0.0819,0.0936,0.0995,0.0957,0.0959,0.0961,0,-0.0434,-0.0352,-0.0337,-0.0311,-0.0159,-0.0065,0.0019,0.0198,0.0247,0.0395,0.0459,0.0585,0.064,0.068,0.0722,0.0783,0.0856,0.0788,0.0791,0.0792,0.0962,0.0811,0.0809,0.0873,0.0875,0.0877,0.0946,0,-0.036,-0.0353,-0.0321,-0.0228,-0.0151,-0.0032,0.0158,0.022,0.0313,0.0433,0.0523,0.0576,0.063,0.0666,0.0684,0.0765,0.0749,0.0763,0.0743,0.0789,0.0811,0.0822,0.0687,0.0687,0.0687,0.0687,0,0,-0.0341,-0.032,-0.0216,-0.0174,-0.0095,0.0109,0.0179,0.0293,0.0431,0.0477,0.0462,0.0568,0.0593,0.0659,0.0664,0.0688,0.0703,0.0668,0.0764,0.0772,0.078,0.0804,0.0815,0.0687,0.0687,0.0687,0.0687,0,-0.0268,-0.0262,-0.0256,-0.0148,0.0028,0.0145,0.0183,0.0374,0.0418,0.049,0.0487,0.0513,0.0566,0.0588,0.0619,0.0678,0.0692,0.0695,0.0698,0.0763,0.0771,0.0778,0.0802,0.0812,0.0688,0.0688,0.0688,0,-0.0203,-0.0146,-0.0131,-0.0009,0.0115,0.0212,0.0297,0.042,0.0481,0.0476,0.0473,0.0495,0.0537,0.0562,0.0573,0.056,0.0669,0.0635,0.0636,0.0642,0.0709,0.0718,0.0727,0.0616,0.0616,0.0615,0,0,-0.0157,-0.0161,0.0039,0.0034,0.0112,0.0283,0.0346,0.0408,0.0481,0.0476,0.0472,0.0482,0.052,0.0512,0.0539,0.0586,0.0612,0.0623,0.0627,0.0629,0.0636,0.0703,0.0713,0.0613,0.0613,0.0613,0,0,-0.0101,0.0052,0.0077,0.0063,0.022,0.042,0.0431,0.0498,0.0498,0.0465,0.0467,0.0458,0.0468,0.0484,0.0454,0.0536,0.0527,0.0534,0.0507,0.0511,0.0515,0.0509,0.0436,0,0,0,0,0,0.011,0.0056,0.0079,0.0101,0.0246,0.0431,0.0456,0.0488,0.0479,0.0477,0.0454,0.0449,0.0452,0.0424,0.0437,0.0471,0.0587,0.0592,0.0596,0.0575,0.0579,0.0583,0,0,0,0,0,0,0.0121,0.0144,0.0085,0.0277,0.0315,0.0429,0.0406,0.0416,0.0474,0.0461,0.046,0.0451,0.0434,0.042,0.0431,0.0463,0.0433,0.0589,0.0593,0.0596,0.0576,0.058,0.0583,0,0,0,0,0,0.013,0.015,0.0336,0.028,0.0312,0.0395,0.0398,0.0406,0.042,0.0457,0.0448,0.0436,0.0439,0.0442,0.0426,0.0457,0.0425,0.0429,0.0591,0.0594,0.0597,0.0578,0,0,0,0,0,0,0.0138,0.0154,0.0347,0.0364,0.0221,0.0385,0.0396,0.0397,0.0406,0.0409,0.0433,0.0423,0.0444,0.0445,0.0448,0.0454,0.0419,0.0423,0.0426,0.0594,0.0596,0.0598,0,0,0,0,0,0,0.0147,0.0166,0.0354,0.0276,0.0283,0.0376,0.0385,0.0446,0.04,0.0374,0.0373,0.0427,0.0401,0.0448,0.045,0.0549,0.0415,0.0419,0.0421,0.0423,0.0596,0.0598,0,0,0,0,0,0,0.0159,0.0175,0.027,0.0276,0.0282,0.046,0.0425,0.0529,0.0448,0.0368,0.0433,0.0425,0.0404,0.0407,0.0452,0.0552,0.055,0.0415,0.0417,0.0419,0.0421,0,0,0,0,0,0,0,0.0168,0.0016,0.0267,0.0276,0.0281,0.0525,0.0528,0.053,0.0447,0.0441,0.0434,0.0428,0.0393,0.0397,0.0401,0.0553,0,0,0.0414,0.0416,0,0,0,0,0,0,0,0,0.0013,0.0015,0.0268,0.0272,0.0277,0.0525,0.0527,0.053,0.0446,0.0441,0.0436,0.0431,0.0394,0.0397,0.0401,0,0,0,0,0,0,0,0,0,0,0,0,0,0,0,0.0268,0.0272,0,0.0526,0.0527,0.0529,0.0445,0.0441,0.0437,0.0433,0.0395,0.0398,0.04,0,0,0,0,0,0,0,0,0,0,0,0,0,0,0,0,0,0,0,0,0,0,0,0,0,0,0,0,0,0,0,0,0,0,0,0,0,0,0,0,0,0,0,0,0,0,0,0,0,0,0,0,0,0,0,0,0,0,0,0,0,0,0,0,0,0,0,0,0]}]],[[{"header":{"parameterUnit":"kt","parameterCategory":2,"dx":1,"dy":1,"la1":30.253999710083008,"la2":30.299108505249023,"lo1":-89.0895004272461,"lo2":-89.04439544677734,"nx":28,"ny":28,"refTime":"2022-11-01T21:00:00:Z","depth":"4","parameterNumber":2,"parameterNumberName":"U-component_of_CURRENTS"},"data":[-0.0823,-0.0833,-0.0805,-0.0775,-0.0741,-0.0758,-0.076,-0.0775,-0.0727,-0.0749,-0.0656,-0.0687,-0.054,-0.0591,-0.0415,-0.0404,-0.0493,-0.0336,-0.0335,-0.0508,-0.052,-0.0531,-0.0556,0,0,0,0,0,-0.0808,-0.0795,-0.0808,-0.0783,-0.0794,-0.0805,-0.085,-0.0881,-0.092,-0.0823,-0.0835,-0.0708,-0.0574,-0.0531,-0.0431,-0.0486,-0.0472,-0.0375,-0.0525,-0.0515,-0.0529,-0.0549,0,0,0,0,0,0,-0.0775,-0.0779,-0.0772,-0.0785,-0.0823,-0.0817,-0.0864,-0.0877,-0.0896,-0.089,-0.0846,-0.0746,-0.0713,-0.059,-0.0531,-0.0461,-0.0466,-0.0502,-0.0515,-0.0528,-0.0539,-0.0493,-0.0361,0,0,0,0,0,-0.0755,-0.0739,-0.0755,-0.0781,-0.0829,-0.0877,-0.0953,-0.0958,-0.0998,-0.1034,-0.093,-0.0857,-0.0733,-0.0656,-0.0569,-0.0534,-0.0664,-0.0594,-0.0602,-0.0666,-0.0638,-0.0628,-0.0638,-0.058,-0.0581,-0.0582,-0.0583,0,-0.0732,-0.0732,-0.0777,-0.0797,-0.0842,-0.0916,-0.0959,-0.1033,-0.1044,-0.1035,-0.1017,-0.0941,-0.0896,-0.0738,-0.073,-0.0648,-0.064,-0.0628,-0.0697,-0.066,-0.0645,-0.0652,-0.0658,-0.0594,-0.0593,-0.0592,-0.0591,0,-0.0737,-0.076,-0.0791,-0.0859,-0.0895,-0.0925,-0.1018,-0.1041,-0.1059,-0.1056,-0.106,-0.1026,-0.0945,-0.0917,-0.0869,-0.0848,-0.0794,-0.0743,-0.084,-0.0826,-0.0676,-0.0678,-0.0612,-0.0608,-0.0604,-0.0602,-0.0599,0,-0.0782,-0.0814,-0.0866,-0.0866,-0.0925,-0.094,-0.0988,-0.1003,-0.1028,-0.1037,-0.1041,-0.1029,-0.1037,-0.0998,-0.0972,-0.0881,-0.0935,-0.0829,-0.0807,-0.0938,-0.0938,-0.0933,-0.0933,-0.0943,-0.0944,-0.0945,-0.0945,0,-0.0806,-0.0843,-0.0863,-0.0867,-0.0893,-0.0922,-0.095,-0.0953,-0.0977,-0.0994,-0.0996,-0.1033,-0.103,-0.1029,-0.0974,-0.0995,-0.094,-0.0963,-0.0838,-0.0829,-0.0937,-0.0936,-0.0946,-0.0946,-0.0946,-0.0947,-0.0947,0,-0.0832,-0.0837,-0.0848,-0.089,-0.0883,-0.09,-0.0903,-0.0926,-0.0939,-0.0955,-0.0985,-0.0994,-0.1016,-0.1005,-0.1001,-0.1014,-0.0977,-0.096,-0.0957,-0.0868,-0.084,-0.0874,-0.0891,-0.0891,-0.0892,-0.0892,-0.0892,0,-0.0852,-0.0836,-0.0823,-0.0845,-0.0829,-0.0811,-0.0834,-0.0841,-0.0851,-0.0881,-0.0908,-0.0952,-0.0953,-0.097,-0.0979,-0.0969,-0.0958,-0.0974,-0.0939,-0.0937,-0.0841,-0.0837,-0.0982,-0.0894,-0.0894,-0.0894,-0.0894,0,-0.0822,-0.0807,-0.0799,-0.0793,-0.0744,-0.0753,-0.0763,-0.0776,-0.0795,-0.083,-0.0876,-0.0921,-0.0928,-0.0949,-0.0961,-0.0969,-0.0955,-0.0958,-0.0958,-0.0909,-0.0945,-0.0849,-0.0838,-0.0979,-0.0979,-0.098,-0.0895,0,-0.0785,-0.0778,-0.0783,-0.071,-0.0714,-0.0734,-0.0711,-0.0723,-0.0736,-0.0759,-0.0819,-0.0843,-0.0888,-0.0897,-0.0901,-0.0937,-0.0917,-0.0929,-0.0917,-0.0942,-0.0899,-0.0897,-0.0908,-0.0908,-0.0908,-0.0908,0,0,-0.0743,-0.0729,-0.068,-0.0651,-0.0664,-0.0639,-0.0646,-0.0661,-0.0703,-0.073,-0.0727,-0.0809,-0.0821,-0.0876,-0.0883,-0.0895,-0.0886,-0.0901,-0.0932,-0.0935,-0.0938,-0.0898,-0.0897,-0.0907,-0.0907,-0.0907,-0.0907,0,-0.07,-0.0669,-0.0655,-0.0647,-0.0633,-0.0631,-0.0633,-0.0648,-0.0669,-0.0711,-0.0724,-0.0752,-0.0811,-0.083,-0.0849,-0.0889,-0.0876,-0.0902,-0.0921,-0.093,-0.0933,-0.0936,-0.0897,-0.0897,-0.0907,-0.0907,-0.0907,0,-0.0624,-0.0592,-0.0603,-0.0581,-0.0591,-0.0589,-0.0595,-0.0627,-0.0649,-0.0662,-0.0711,-0.073,-0.0762,-0.0803,-0.0823,-0.0819,-0.0863,-0.0865,-0.0867,-0.0871,-0.088,-0.0883,-0.0887,-0.0841,-0.0841,-0.0841,0,0,-0.0565,-0.0553,-0.0539,-0.0572,-0.056,-0.0583,-0.0607,-0.0614,-0.0645,-0.0658,-0.0687,-0.0717,-0.0748,-0.0769,-0.0797,-0.084,-0.0829,-0.0856,-0.086,-0.0862,-0.0867,-0.0877,-0.0881,-0.084,-0.084,-0.084,0,0,-0.0569,-0.0534,-0.0514,-0.0531,-0.0548,-0.0587,-0.0618,-0.0625,-0.0657,-0.0656,-0.068,-0.0689,-0.073,-0.0745,-0.0728,-0.0793,-0.0781,-0.0786,-0.0782,-0.0786,-0.0789,-0.0786,-0.0724,0,0,0,0,0,-0.0512,-0.0529,-0.051,-0.0514,-0.0542,-0.0582,-0.0592,-0.0619,-0.062,-0.0634,-0.066,-0.0661,-0.074,-0.0726,-0.0735,-0.0753,-0.0825,-0.0828,-0.083,-0.0835,-0.0839,-0.0843,0,0,0,0,0,0,-0.0513,-0.0513,-0.0512,-0.0543,-0.0552,-0.0581,-0.058,-0.0588,-0.0618,-0.0619,-0.0656,-0.0662,-0.0675,-0.0722,-0.073,-0.0747,-0.0721,-0.0826,-0.0828,-0.083,-0.0836,-0.084,-0.0843,0,0,0,0,0,-0.0515,-0.0515,-0.054,-0.0545,-0.0552,-0.0595,-0.0579,-0.0585,-0.0606,-0.0642,-0.0647,-0.0627,-0.0674,-0.0683,-0.0727,-0.0743,-0.0715,-0.0718,-0.0827,-0.0829,-0.0831,-0.0838,0,0,0,0,0,0,-0.0516,-0.0525,-0.0543,-0.0549,-0.0538,-0.0595,-0.0598,-0.0583,-0.0626,-0.0633,-0.0612,-0.0612,-0.0675,-0.0681,-0.0687,-0.074,-0.0711,-0.0714,-0.0716,-0.0829,-0.083,-0.0831,0,0,0,0,0,0,-0.0527,-0.0529,-0.0546,-0.0536,-0.054,-0.0595,-0.0597,-0.063,-0.0626,-0.0593,-0.0595,-0.0612,-0.0666,-0.068,-0.0685,-0.0736,-0.0707,-0.071,-0.0712,-0.0714,-0.083,-0.0831,0,0,0,0,0,0,-0.0529,-0.0532,-0.0534,-0.0538,-0.0542,-0.0607,-0.0625,-0.0648,-0.0625,-0.0589,-0.0624,-0.0623,-0.0665,-0.067,-0.0683,-0.0732,-0.0735,-0.0707,-0.0709,-0.0711,-0.0712,0,0,0,0,0,0,0,-0.0532,-0.0493,-0.0514,-0.0539,-0.0543,-0.0605,-0.0607,-0.0608,-0.0625,-0.0624,-0.0624,-0.0623,-0.0691,-0.0694,-0.0697,-0.0729,0,0,-0.0707,-0.0709,0,0,0,0,0,0,0,0,-0.0494,-0.0493,-0.0514,-0.0515,-0.0517,-0.0606,-0.0607,-0.0607,-0.0625,-0.0624,-0.0624,-0.0623,-0.0692,-0.0694,-0.0697,0,0,0,0,0,0,0,0,0,0,0,0,0,0,0,-0.0514,-0.0515,0,-0.0606,-0.0606,-0.0607,-0.0625,-0.0624,-0.0624,-0.0624,-0.0692,-0.0694,-0.0697,0,0,0,0,0,0,0,0,0,0,0,0,0,0,0,0,0,0,0,0,0,0,0,0,0,0,0,0,0,0,0,0,0,0,0,0,0,0,0,0,0,0,0,0,0,0,0,0,0,0,0,0,0,0,0,0,0,0,0,0,0,0,0,0,0,0,0,0,0]}],[{"header":{"parameterUnit":"kt","parameterCategory":2,"dx":1,"dy":1,"la1":30.253999710083008,"la2":30.299108505249023,"lo1":-89.0895004272461,"lo2":-89.04439544677734,"nx":28,"ny":28,"refTime":"2022-11-01T21:00:00:Z","depth":"4","parameterNumber":3,"parameterNumberName":"V-component_of_CURRENTS"},"data":[-0.0523,-0.054,-0.0541,-0.0555,-0.0574,-0.0578,-0.0557,-0.0503,-0.0405,-0.029,-0.0185,-0.0042,0.012,0.008,0.0307,0.0332,0.0328,0.0503,0.0506,0.0475,0.0467,0.0461,0.0384,0,0,0,0,0,-0.0514,-0.053,-0.0535,-0.0547,-0.0552,-0.0557,-0.0509,-0.0483,-0.04,-0.0258,-0.0197,-0.0052,0.0146,0.0221,0.0314,0.0293,0.0365,0.0401,0.037,0.047,0.0462,0.039,0,0,0,0,0,0,-0.051,-0.0515,-0.0543,-0.054,-0.0539,-0.053,-0.0507,-0.0422,-0.0373,-0.0236,-0.016,-0.0014,0.0073,0.0214,0.0306,0.0383,0.0415,0.0437,0.043,0.0423,0.0363,0.0304,0.0501,0,0,0,0,0,-0.0505,-0.0525,-0.053,-0.0536,-0.0528,-0.0513,-0.0478,-0.0454,-0.0392,-0.0349,-0.0175,-0.006,0.0066,0.0165,0.0257,0.0357,0.0301,0.0378,0.0375,0.0336,0.0291,0.0287,0.0269,0.0429,0.0428,0.0428,0.0427,0,-0.05,-0.0516,-0.0521,-0.052,-0.0512,-0.0492,-0.0479,-0.044,-0.0417,-0.0311,-0.0282,-0.0173,-0.0123,0.0097,0.0139,0.0278,0.0301,0.0356,0.0313,0.0275,0.0278,0.026,0.0243,0.042,0.0421,0.0421,0.0422,0,-0.049,-0.05,-0.0508,-0.0495,-0.0487,-0.0479,-0.0449,-0.0433,-0.0399,-0.0352,-0.0338,-0.0277,-0.0168,-0.0122,0.0023,0.0072,0.0192,0.0255,0.0106,0.0111,0.0239,0.0225,0.0409,0.0412,0.0414,0.0415,0.0417,0,-0.0471,-0.0474,-0.0473,-0.0487,-0.0469,-0.0475,-0.0455,-0.0441,-0.041,-0.0373,-0.0365,-0.0311,-0.0268,-0.0192,-0.0124,0.0017,0.0022,0.0116,0.0138,0.0007,-0.0006,0.0033,0.0022,0.0119,0.0118,0.0117,0.0116,0,-0.0448,-0.046,-0.0473,-0.0483,-0.0488,-0.048,-0.0474,-0.046,-0.0445,-0.0412,-0.0391,-0.034,-0.031,-0.022,-0.0158,-0.0178,-0.0015,-0.0029,0.0082,0.0084,0.0023,0.0014,0.0115,0.0115,0.0114,0.0114,0.0114,0,-0.0438,-0.0447,-0.0473,-0.0465,-0.0475,-0.0483,-0.0476,-0.0478,-0.0453,-0.044,-0.0414,-0.0402,-0.0352,-0.0355,-0.0236,-0.0287,-0.0208,-0.0163,-0.0156,-0.0105,-0.0122,-0.014,-0.0098,-0.01,-0.0102,-0.0104,-0.0106,0,-0.0413,-0.0449,-0.0457,-0.0476,-0.0495,-0.0514,-0.0505,-0.0512,-0.0507,-0.0482,-0.0465,-0.0438,-0.0449,-0.0436,-0.0386,-0.034,-0.0266,-0.0346,-0.0185,-0.018,-0.0142,-0.0089,-0.0276,-0.0135,-0.0131,-0.0128,-0.0127,0,-0.0406,-0.0432,-0.0437,-0.0451,-0.0501,-0.0516,-0.0522,-0.0527,-0.0512,-0.0519,-0.0484,-0.0474,-0.0462,-0.0447,-0.0441,-0.0388,-0.0308,-0.0375,-0.0371,-0.0305,-0.0157,-0.0129,-0.0109,-0.029,-0.0288,-0.0285,-0.0146,0,-0.0396,-0.0412,-0.0423,-0.0481,-0.0495,-0.0516,-0.054,-0.0545,-0.0547,-0.0541,-0.052,-0.0505,-0.0474,-0.0484,-0.0476,-0.0425,-0.0414,-0.0411,-0.0378,-0.0372,-0.0317,-0.0302,-0.0479,-0.0479,-0.0479,-0.0479,0,0,-0.039,-0.0409,-0.0446,-0.0477,-0.0487,-0.0519,-0.0537,-0.0539,-0.0544,-0.0529,-0.0533,-0.0501,-0.049,-0.0457,-0.0462,-0.0471,-0.0428,-0.0451,-0.0397,-0.0388,-0.038,-0.0326,-0.0311,-0.0478,-0.0478,-0.0478,-0.0478,0,-0.0396,-0.0419,-0.0444,-0.0468,-0.0506,-0.0515,-0.0526,-0.0543,-0.0532,-0.0537,-0.0514,-0.0501,-0.0492,-0.0462,-0.045,-0.0469,-0.0418,-0.0482,-0.0466,-0.0397,-0.0389,-0.0381,-0.0327,-0.0314,-0.0477,-0.0477,-0.0477,0,-0.0413,-0.0442,-0.0452,-0.0489,-0.0498,-0.0518,-0.051,-0.0524,-0.0525,-0.0501,-0.0483,-0.0476,-0.0455,-0.0447,-0.0444,-0.0433,-0.0395,-0.0437,-0.0439,-0.0416,-0.0342,-0.0334,-0.0327,-0.0411,-0.0411,-0.0411,0,0,-0.0434,-0.0458,-0.049,-0.0494,-0.0509,-0.0516,-0.0516,-0.0517,-0.051,-0.0502,-0.048,-0.0462,-0.045,-0.0438,-0.0429,-0.0427,-0.038,-0.0429,-0.0432,-0.0435,-0.0414,-0.0341,-0.0334,-0.041,-0.041,-0.041,0,0,-0.043,-0.0474,-0.0488,-0.0495,-0.0513,-0.0512,-0.0504,-0.0506,-0.049,-0.0486,-0.0454,-0.0446,-0.0441,-0.0429,-0.042,-0.0416,-0.0404,-0.0406,-0.0415,-0.0419,-0.0422,-0.0396,-0.0386,0,0,0,0,0,-0.0479,-0.0479,-0.0492,-0.0496,-0.0507,-0.052,-0.0518,-0.0497,-0.0487,-0.0487,-0.0464,-0.0443,-0.0414,-0.0405,-0.0402,-0.0404,-0.0398,-0.04,-0.0402,-0.0415,-0.0419,-0.0423,0,0,0,0,0,0,-0.0481,-0.0487,-0.0491,-0.0495,-0.0497,-0.0519,-0.0492,-0.0486,-0.0485,-0.048,-0.0449,-0.0442,-0.0416,-0.0405,-0.0403,-0.0405,-0.0386,-0.0399,-0.0401,-0.0402,-0.0416,-0.042,-0.0423,0,0,0,0,0,-0.0482,-0.0487,-0.0514,-0.0493,-0.0495,-0.0476,-0.049,-0.0485,-0.048,-0.0451,-0.0443,-0.0464,-0.0417,-0.0413,-0.0404,-0.0406,-0.0388,-0.0387,-0.04,-0.0402,-0.0403,-0.0418,0,0,0,0,0,0,-0.0483,-0.0473,-0.0513,-0.0512,-0.0483,-0.0472,-0.0471,-0.0485,-0.0449,-0.0443,-0.0464,-0.046,-0.0419,-0.0415,-0.0412,-0.0408,-0.0389,-0.0388,-0.0388,-0.0401,-0.0402,-0.0403,0,0,0,0,0,0,-0.047,-0.0473,-0.0512,-0.05,-0.0498,-0.047,-0.0469,-0.0465,-0.0448,-0.0463,-0.046,-0.0463,-0.0421,-0.0416,-0.0414,-0.0408,-0.039,-0.0389,-0.0389,-0.0388,-0.0402,-0.0403,0,0,0,0,0,0,-0.0471,-0.0473,-0.05,-0.0498,-0.0496,-0.0481,-0.0464,-0.0473,-0.0451,-0.0464,-0.0448,-0.0446,-0.0423,-0.0419,-0.0415,-0.0412,-0.0409,-0.039,-0.0389,-0.0389,-0.0389,0,0,0,0,0,0,0,-0.0471,-0.0468,-0.0523,-0.0496,-0.0494,-0.0505,-0.0504,-0.0503,-0.0451,-0.0449,-0.0448,-0.0447,-0.0395,-0.0394,-0.0393,-0.0414,0,0,-0.039,-0.039,0,0,0,0,0,0,0,0,-0.0466,-0.0467,-0.0523,-0.0523,-0.0523,-0.0504,-0.0504,-0.0503,-0.0451,-0.0449,-0.0448,-0.0447,-0.0394,-0.0394,-0.0393,0,0,0,0,0,0,0,0,0,0,0,0,0,0,0,-0.0523,-0.0523,0,-0.0504,-0.0504,-0.0504,-0.045,-0.0449,-0.0449,-0.0448,-0.0394,-0.0394,-0.0393,0,0,0,0,0,0,0,0,0,0,0,0,0,0,0,0,0,0,0,0,0,0,0,0,0,0,0,0,0,0,0,0,0,0,0,0,0,0,0,0,0,0,0,0,0,0,0,0,0,0,0,0,0,0,0,0,0,0,0,0,0,0,0,0,0,0,0,0,0]}]]]